Sussex, NJ

5:24 AM EDT on August 24, 2017 (GMT -0400)
Sussex

Weather History for KFWN - November, 2013

Change the Weather History Date:

Saturday, November 9, 2013

  Actual Average Record
Temperature  
Mean Temperature 34 °F -  
Max Temperature 48 °F 52 °F 72 °F (1975)
Min Temperature 21 °F 31 °F 15 °F (1992)
Degree Days  
Heating Degree Days 30    
Moisture  
Dew Point 26 °F    
Average Humidity 65    
Maximum Humidity 92    
Minimum Humidity 41    
Precipitation  
Precipitation 0.00 in - - ()
Sea Level Pressure  
Sea Level Pressure 30.17 in    
Wind  
Wind Speed 3 mph (SW)    
Max Wind Speed 9 mph    
Max Gust Speed 17 mph    
Visibility 10 miles    
Events      
Averages and records for this station are not official NWS values.
T = Trace of Precipitation, MM = Missing Value Source: NWS Daily Summary

Daily Weather History Graph

Daily Weather History Graph

Search for Another Location

Airport or City:

Trip Planner

Search our weather history database for the weather conditions in past years. The results will help you decide how hot, cold, wet, or windy it might be!

Date:

Astronomy

Nov. 09, 2013 Rise Set
Actual Time 6:39 AM EST 4:44 PM EST
Civil Twilight 6:10 AM EST 5:13 PM EST
Nautical Twilight 5:37 AM EST 5:46 PM EST
Astronomical Twilight 5:04 AM EST 6:19 PM EST
Moon 12:14 PM EST (11/9) 11:12 PM EST (11/9)
Length of Visible Light 11h 03m
Length of Day
10h 05m
Waxing Crescent, 44% of the Moon is Illuminated
Nov 9
Waxing Crescent
Nov 10
First Quarter
Nov 17
Full
Nov 25
Last Quarter
Dec 2
New

Hourly Weather History & Observations

Time (EST) Temp. Windchill Dew Point Humidity Pressure Visibility Wind Dir Wind Speed Gust Speed Precip Events Conditions
12:53 AM 30.0 °F 26.5 °F 24.1 °F 79% 30.23 in 10.0 mi WSW 3.5 mph - N/A   Clear
1:53 AM 28.9 °F - 25.0 °F 85% 30.24 in 10.0 mi Calm Calm - N/A   Clear
2:53 AM 28.0 °F - 24.1 °F 85% 30.24 in 10.0 mi Calm Calm - N/A   Clear
3:53 AM 26.1 °F - 23.0 °F 88% 30.25 in 10.0 mi Calm Calm - N/A   Partly Cloudy
4:53 AM 24.1 °F - 21.0 °F 88% 30.27 in 10.0 mi Calm Calm - N/A   Clear
5:53 AM 24.1 °F - 21.0 °F 88% 30.27 in 10.0 mi Calm Calm - N/A   Clear
6:53 AM 21.9 °F - 19.9 °F 92% 30.27 in 10.0 mi Calm Calm - N/A   Clear
7:53 AM 28.0 °F - 26.1 °F 92% 30.29 in 10.0 mi Calm Calm - N/A   Clear
8:53 AM 34.0 °F - 28.0 °F 79% 30.28 in 10.0 mi Calm Calm - 0.00 in   Clear
9:53 AM 36.0 °F - 30.0 °F 79% 30.27 in 10.0 mi Calm Calm - N/A   Clear
10:53 AM 39.9 °F 37.8 °F 30.9 °F 70% 30.27 in 10.0 mi SSW 3.5 mph - N/A   Clear
11:53 AM 45.0 °F 41.2 °F 28.0 °F 52% 30.21 in 10.0 mi SSW 6.9 mph - N/A   Clear
12:53 PM 48.0 °F - 26.1 °F 42% 30.18 in 10.0 mi SW 9.2 mph - N/A   Clear
1:53 PM 46.9 °F - 26.1 °F 44% 30.15 in 10.0 mi SW 5.8 mph 17.3 mph N/A   Clear
2:53 PM 48.0 °F - 25.0 °F 41% 30.12 in 10.0 mi SSW 8.1 mph - N/A   Clear
3:53 PM 46.0 °F 43.9 °F 25.0 °F 44% 30.11 in 10.0 mi SSW 4.6 mph - N/A   Clear
4:53 PM 45.0 °F 41.8 °F 24.1 °F 44% 30.09 in 10.0 mi SSW 5.8 mph - N/A   Clear
5:53 PM 44.1 °F 42.5 °F 25.0 °F 47% 30.10 in 10.0 mi SSW 3.5 mph - N/A   Scattered Clouds
6:53 PM 44.1 °F 41.5 °F 25.0 °F 47% 30.09 in 10.0 mi SSW 4.6 mph - N/A   Overcast
7:53 PM 44.1 °F 42.5 °F 26.1 °F 49% 30.08 in 10.0 mi SW 3.5 mph - N/A   Overcast
8:53 PM 43.0 °F 41.3 °F 27.0 °F 53% 30.06 in 10.0 mi SSW 3.5 mph - N/A   Mostly Cloudy
9:53 PM 44.1 °F 41.5 °F 28.0 °F 53% 30.03 in 10.0 mi Variable 4.6 mph - N/A   Overcast
10:53 PM 44.1 °F 41.5 °F 28.9 °F 55% 30.00 in 10.0 mi SW 4.6 mph - N/A   Overcast
11:53 PM 44.1 °F 41.5 °F 30.0 °F 58% 29.97 in 10.0 mi SW 4.6 mph - N/A   Overcast